This is the latest recevied weather packets stored in our database for station/object KE5VT. If no packets are shown the sender has not sent any weather packets the latest 10 day(s).
| Time | Temp. | Humidity | Pressure | Rain* | Wind** | Luminosity | Snow |
|---|---|---|---|---|---|---|---|
| 1787755665 | 26.11° C | 86% | 1015.3 hPa | 0 mm | - | 103 W/m² | - |
| 1787755361 | 26.11° C | 87% | 1015.3 hPa | 0 mm | - | 137 W/m² | - |
| 1787755061 | 25.56° C | 88% | 1015.3 hPa | 0 mm | - | 131 W/m² | - |
| 1787754760 | 25.56° C | 89% | 1015.3 hPa | 0 mm | - | 153 W/m² | - |
| 1787754458 | 25.56° C | 89% | 1015.2 hPa | 0 mm | - | 105 W/m² | - |
| 1787754153 | 25.56° C | 88% | 1015.3 hPa | 0 mm | - | 111 W/m² | - |
| 1787753848 | 25.56° C | 89% | 1015.6 hPa | 0 mm | - | 82 W/m² | - |
| 1787753547 | 25° C | 90% | 1015.2 hPa | 0 mm | - | 106 W/m² | - |
| 1787753245 | 25° C | 91% | 1015.6 hPa | 0 mm | - | 66 W/m² | - |
| 1787752941 | 24.44° C | 91% | 1015.4 hPa | 0 mm | - | 61 W/m² | - |
| 1787752640 | 24.44° C | 91% | 1015.6 hPa | 0 mm | - | 71 W/m² | - |
| 1787752336 | 24.44° C | 91% | 1015.4 hPa | 0 mm | - | 98 W/m² | - |
| 1787752034 | 24.44° C | 90% | 1015.6 hPa | 0 mm | - | 73 W/m² | - |
| 1787751729 | 23.89° C | 90% | 1015.6 hPa | 0 mm | - | 73 W/m² | - |
| 1787751425 | 23.89° C | 90% | 1015.8 hPa | 0 mm | - | 100 W/m² | - |
| 1787751120 | 23.89° C | 91% | 1015.7 hPa | 0 mm | - | 55 W/m² | - |
| 1787750816 | 23.89° C | 91% | 1015.7 hPa | 0 mm | - | 51 W/m² | - |
| 1787750516 | 23.33° C | 91% | 1015.7 hPa | 0 mm | - | 50 W/m² | - |
| 1787750210 | 23.33° C | 91% | 1015.4 hPa | 0 mm | - | 72 W/m² | - |
| 1787749906 | 23.33° C | 92% | 1015.6 hPa | 0 mm | - | 67 W/m² | - |
| 1787749602 | 22.78° C | 92% | 1015.6 hPa | 0 mm | - | 73 W/m² | - |
| 1787749297 | 22.78° C | 92% | 1015.4 hPa | 0 mm | - | 76 W/m² | - |
| 1787748992 | 22.22° C | 92% | 1015.6 hPa | 0 mm | - | 57 W/m² | - |
| 1787748686 | 22.22° C | 92% | 1015.6 hPa | 0 mm | - | 45 W/m² | - |
| 1787748381 | 22.22° C | 93% | 1015.3 hPa | 0 mm | - | 50 W/m² | - |
* Rain latest hour (hover to see other rain measurements)
** Current wind speed in m/s (hover to see current wind gust speed)